GFSMA_sfc_thetae_273.txt.gz
Theta_e
321 318 318 315 317 316 314 312 315 315 314 314 315 317 317 322 325 329 331 338 340 342 342 344 346 349 348 349 350 352 350 349 350 349 349 348 347 346 344 342 341 340 339
320 319 318 315 317 317 315 312 314 313 313 313 313 314 313 316 318 322 328 325 334 340 343 343 344 345 347 349 349 351 351 348 348 348 347 347 348 347 346 344 343 343 341
320 318 318 317 319 318 315 315 316 314 314 314 313 313 312 312 316 318 319 318 323 331 336 344 342 346 347 348 348 348 349 347 348 349 348 347 346 347 347 347 345 345 344
321 319 318 318 320 317 317 320 318 317 315 313 313 312 313 313 313 313 315 316 321 322 327 339 342 342 344 345 345 347 349 350 348 347 347 348 346 346 348 347 347 346 344
319 316 313 313 316 315 314 316 314 314 313 314 316 313 314 311 311 315 313 314 316 320 329 336 337 338 338 338 341 344 348 347 348 348 348 348 348 346 347 347 347 345 344
316 311 311 311 312 313 312 312 310 312 315 314 315 313 310 311 311 310 311 314 313 320 329 329 326 327 335 337 338 341 342 347 346 347 347 347 347 347 347 347 345 344 343
314 311 310 310 310 310 310 310 309 309 309 309 307 306 308 308 309 309 308 309 318 323 325 326 327 328 330 336 337 338 339 339 341 348 345 343 345 346 347 346 345 343 342
313 314 310 310 309 309 309 309 308 307 308 309 306 306 299 302 306 309 308 314 311 319 323 323 323 324 327 328 329 337 341 341 342 343 345 343 343 345 345 344 343 342 342
313 312 311 310 309 307 306 306 307 306 306 311 310 303 297 296 301 305 308 309 309 314 316 316 320 323 324 326 328 331 334 335 335 338 337 339 343 343 344 342 341 340 338
311 311 310 309 307 307 306 306 310 308 311 305 303 309 305 305 298 297 304 307 309 313 312 314 317 323 325 326 329 331 332 335 334 334 336 335 339 343 343 341 339 335 333
308 309 309 307 306 309 311 307 306 306 307 303 301 301 305 303 303 302 299 301 306 309 311 313 317 321 324 322 320 325 329 327 329 330 329 335 339 344 339 335 332 331 330
305 307 308 307 307 306 308 310 309 307 307 307 307 306 305 303 299 300 299 299 300 306 315 316 317 320 321 323 327 328 327 327 327 328 328 329 331 334 334 333 332 330 329
304 305 309 309 309 309 309 310 308 307 306 306 307 307 306 305 306 302 301 300 300 304 312 316 317 318 319 321 322 324 324 324 324 324 325 326 327 327 328 327 327 326 325
307 307 310 310 310 311 309 308 306 306 305 305 306 307 307 306 306 305 301 300 299 302 308 311 317 317 317 318 322 321 318 318 318 318 318 320 321 321 321 321 322 321 320
306 308 309 309 309 309 306 307 306 306 306 305 305 306 307 307 307 306 305 304 302 301 303 308 310 312 313 314 316 314 315 318 316 315 315 315 315 315 316 316 315 315 315
307 308 308 308 308 308 308 307 306 307 306 305 306 305 305 307 307 306 306 307 308 307 303 307 311 311 313 313 315 312 313 314 314 313 313 312 312 312 312 312 312 312 311
307 307 307 307 307 306 307 306 306 306 306 305 306 305 306 306 304 307 309 309 308 309 305 308 310 311 310 309 308 309 310 309 310 312 311 310 310 309 309 309 309 309 309
306 307 307 306 306 306 307 306 306 307 306 305 305 305 305 309 304 306 309 309 310 309 308 305 306 306 305 307 307 306 307 308 306 309 308 307 307 306 305 305 305 304 304
306 306 306 306 306 306 306 307 306 306 307 305 305 305 304 307 306 307 310 310 310 311 309 306 303 305 304 305 304 305 304 305 306 309 307 307 306 305 304 303 302 301 301
306 303 306 307 307 307 307 307 307 306 305 305 304 302 308 307 308 310 311 311 310 309 308 305 303 303 303 304 303 302 301 303 302 304 304 304 304 304 304 303 303 302 301
306 306 306 307 307 306 307 306 307 304 303 301 301 308 309 311 313 312 310 309 309 309 307 305 303 301 300 300 300 301 299 300 300 300 294 292 293 292 295 300 302 302 301
306 306 306 306 305 306 304 306 306 304 302 300 304 307 308 310 310 312 313 312 311 309 307 306 303 300 300 300 301 300 299 298 295 302 292 291 291 290 292 293 300 300 300
305 305 305 306 304 304 302 303 305 303 299 299 302 304 307 308 307 307 310 311 310 309 310 309 304 303 301 303 303 299 299 297 295 299 294 292 291 288 290 294 300 300 300
305 305 305 305 303 303 302 301 302 298 300 301 302 301 302 303 302 303 304 307 310 310 309 311 308 307 307 306 304 303 303 301 299 301 301 290 291 288 288 289 300 299 299
304 305 303 302 302 300 300 299 300 304 306 305 305 302 303 303 302 302 305 305 307 308 308 307 305 304 302 303 306 305 300 298 298 298 299 294 293 290 289 288 290 299 298
303 304 303 304 303 298 297 296 299 302 304 303 303 299 298 299 299 301 304 307 305 307 307 307 306 304 305 305 306 306 303 299 299 297 298 296 293 292 290 291 290 290 289

GFSMA_sfc_thetae_276.txt.gz
Theta_e
323 323 322 319 319 321 319 317 319 319 319 319 318 319 320 322 326 327 333 336 334 335 340 343 344 346 348 351 349 348 350 350 349 349 348 348 348 347 345 343 342 340 340
322 322 321 320 321 321 319 318 317 319 318 317 318 318 318 318 320 324 326 326 327 330 335 338 341 344 345 347 347 348 349 350 350 349 348 347 346 347 347 345 344 342 342
322 322 321 321 322 322 320 321 320 320 319 317 319 318 318 318 319 320 320 320 321 326 330 335 337 342 342 343 346 348 348 349 350 349 348 348 347 346 345 347 345 345 344
320 318 316 316 318 320 319 320 319 318 318 317 316 319 318 318 318 318 319 319 321 321 326 332 339 340 340 342 343 344 345 347 348 348 348 347 347 345 345 344 347 346 346
317 315 314 314 315 315 316 317 318 317 317 317 317 318 318 316 316 316 317 318 319 322 326 334 336 336 337 337 340 341 342 344 345 347 347 347 348 347 346 345 345 346 345
317 315 314 314 314 314 314 314 313 314 315 316 315 315 314 314 315 315 315 316 317 319 327 333 333 334 336 338 339 338 337 338 343 346 346 346 346 347 346 346 344 344 346
316 315 313 313 313 311 312 313 312 312 312 313 311 309 311 312 313 313 315 314 319 324 328 331 331 332 332 333 333 337 340 340 340 343 344 344 346 347 346 345 345 344 344
316 316 313 312 312 310 311 311 312 311 311 312 309 309 303 306 310 313 313 314 316 320 324 325 327 327 328 326 330 335 339 339 337 340 339 341 344 346 346 345 344 343 342
315 314 313 312 311 310 308 309 309 310 308 311 312 309 302 300 305 309 312 313 314 320 321 321 323 326 327 327 332 333 333 334 336 338 337 338 340 343 347 346 344 342 341
313 313 312 311 310 309 309 310 312 311 311 308 309 311 310 309 303 301 308 311 313 314 318 319 319 323 325 327 330 332 334 336 334 335 338 337 337 343 345 345 343 341 340
311 311 311 311 309 309 311 312 310 309 309 308 307 307 308 308 307 305 301 306 312 315 317 317 319 324 325 327 327 329 329 330 330 333 337 340 340 340 345 343 340 339 336
308 309 310 309 310 310 310 311 312 309 308 308 308 308 307 306 305 304 304 305 306 310 316 318 320 322 322 325 328 326 327 327 327 329 331 334 337 336 337 338 337 336 334
306 307 308 309 310 311 311 311 310 309 308 306 306 306 308 307 308 307 305 304 305 309 312 317 319 320 321 322 325 327 327 325 323 324 326 328 330 331 331 331 331 330 329
305 308 309 310 310 311 310 310 308 307 307 306 305 307 307 308 308 307 305 303 302 305 309 312 317 318 319 321 322 322 320 321 319 319 320 322 324 326 326 326 325 324 323
306 309 309 309 309 309 309 308 307 307 307 307 306 306 305 306 307 308 307 307 304 302 304 311 311 314 315 316 317 316 316 318 317 316 317 317 318 319 318 318 318 317 317
307 307 308 308 309 309 309 308 307 308 307 307 307 306 306 306 307 308 307 308 308 306 304 310 311 312 314 314 316 313 314 315 315 314 314 314 314 315 314 315 314 314 313
307 307 307 308 307 307 308 307 307 307 306 306 307 306 305 307 306 307 308 308 308 308 305 308 311 311 309 308 308 310 311 310 311 312 312 312 311 311 311 311 311 311 311
307 307 307 307 307 307 308 307 306 307 306 306 306 306 306 308 308 307 309 309 308 310 309 305 306 305 305 307 307 306 306 307 306 309 309 308 308 307 307 306 306 306 306
307 307 306 306 307 307 307 307 307 307 307 306 306 306 306 306 308 309 309 308 310 312 310 305 303 305 304 304 303 305 305 304 306 308 307 307 306 305 304 303 303 303 303
305 306 306 307 307 308 307 307 307 307 307 306 306 305 307 307 307 307 310 310 311 308 306 303 302 302 302 304 303 300 299 302 299 300 303 305 306 306 305 304 304 302 302
306 307 307 307 307 307 307 306 307 306 305 304 306 308 310 311 313 313 312 310 309 306 304 302 301 300 300 300 298 300 298 297 297 296 296 296 297 299 300 301 303 303 302
306 306 306 306 306 306 304 306 307 305 304 303 304 307 309 309 310 311 313 312 310 306 304 302 300 299 300 300 300 299 295 293 291 299 295 294 297 295 298 300 301 301 300
306 306 306 306 304 306 302 302 305 304 304 303 304 306 308 307 307 311 310 310 310 309 308 305 301 301 300 302 302 302 301 298 296 296 296 292 295 294 297 300 300 299 300
304 305 306 304 304 305 301 300 302 305 306 307 306 306 307 305 305 310 311 310 310 310 309 308 306 305 306 306 306 306 302 300 299 300 301 294 296 294 296 298 300 299 299
304 305 304 304 303 302 298 296 302 306 306 306 304 302 307 308 301 303 310 308 308 308 308 306 305 303 301 301 305 303 296 297 298 302 304 298 298 296 296 296 298 297 298
303 304 304 304 302 301 298 296 302 306 304 304 303 302 300 302 299 302 310 308 306 307 307 306 305 304 305 305 305 305 301 299 301 301 304 301 300 300 297 299 299 299 298

GFSMA_sfc_thetae_279.txt.gz
Theta_e
336 335 334 333 332 332 331 330 329 328 328 327 327 327 326 326 327 327 328 333 332 331 332 335 339 343 346 348 350 351 351 351 350 350 349 348 347 348 347 346 344 342 341
335 332 332 331 331 331 331 329 329 328 327 327 326 327 327 327 326 327 325 327 329 328 330 332 335 338 343 346 349 349 348 349 351 350 349 348 347 347 348 347 346 344 343
331 330 326 324 324 325 325 327 329 329 328 327 325 325 324 325 326 326 326 326 327 332 329 330 333 336 339 341 343 349 348 346 349 349 349 346 347 346 348 346 346 345 343
327 327 322 323 324 323 322 322 322 323 325 325 324 324 324 325 324 324 323 324 324 324 328 332 332 336 341 340 341 343 347 347 347 348 348 348 346 346 345 346 345 343 344
323 325 323 323 324 321 321 320 320 321 320 321 322 323 323 323 322 320 321 322 323 324 323 328 332 339 338 338 338 339 341 341 342 345 347 347 346 346 345 345 344 343 344
324 324 323 323 322 319 318 318 319 320 320 320 318 318 320 321 320 319 319 318 321 324 325 328 331 332 334 336 338 339 337 337 337 339 342 343 345 346 346 345 344 344 344
324 325 322 321 320 318 318 318 318 318 318 321 319 317 319 320 318 317 319 319 323 324 331 332 329 331 331 332 333 334 338 339 336 335 337 341 343 345 345 345 344 344 344
324 323 322 320 319 316 317 317 317 316 316 318 314 314 309 312 314 318 319 318 322 323 329 330 332 334 335 334 334 334 337 339 340 337 337 337 340 343 344 344 345 343 342
323 323 321 320 319 318 314 315 315 316 313 316 318 312 307 305 309 314 316 320 318 324 327 329 329 330 332 333 335 336 334 336 337 339 337 336 336 340 343 344 344 343 342
321 320 320 320 319 317 316 314 313 314 314 310 313 314 315 312 305 305 313 316 317 318 322 323 325 328 331 333 332 331 334 334 335 336 338 337 333 333 344 346 345 344 343
321 319 319 317 316 314 314 314 313 313 313 311 311 309 311 311 310 306 305 309 317 317 319 319 322 324 326 331 333 330 329 330 331 333 339 339 338 337 343 344 343 342 341
317 316 315 315 315 314 313 312 313 313 312 310 309 309 308 307 308 307 307 308 309 313 318 320 322 324 327 330 329 327 327 327 327 329 333 337 339 342 343 343 341 340 338
311 313 315 313 312 313 313 314 313 313 311 308 308 307 309 308 310 310 306 306 306 311 315 321 322 325 325 327 329 327 326 325 324 325 327 329 331 332 334 336 334 332 332
311 314 312 312 312 312 312 312 312 312 310 308 307 307 307 307 309 308 307 305 302 305 311 313 322 321 324 323 324 324 322 321 320 320 322 324 327 328 328 328 328 326 325
312 312 312 311 311 312 312 311 310 310 309 309 310 308 307 308 308 308 308 308 305 300 303 311 312 317 319 318 318 318 317 319 318 318 318 319 320 321 321 321 321 320 319
314 312 311 310 312 313 311 310 311 311 308 308 308 307 308 308 308 308 308 308 307 305 303 311 312 314 315 315 317 315 315 316 316 315 315 315 315 316 317 317 316 316 315
314 310 309 309 310 310 310 310 310 309 307 308 309 307 307 307 307 308 308 308 308 308 304 309 311 311 309 308 309 311 313 311 312 313 313 312 312 312 312 313 313 313 313
312 309 309 309 309 310 310 309 310 310 307 306 307 306 306 309 311 313 308 308 309 310 308 305 305 306 306 307 306 307 307 308 308 310 309 309 308 308 308 308 308 308 309
310 309 308 308 310 309 309 310 309 308 309 308 310 310 311 311 309 311 312 310 309 311 309 305 303 304 304 305 308 307 307 307 307 309 308 308 307 306 305 305 305 305 305
308 308 308 309 310 309 309 309 309 309 310 310 311 311 309 309 308 311 311 312 310 309 305 303 301 301 302 303 303 302 299 297 300 304 306 306 306 307 306 305 304 303 302
307 308 310 309 310 309 310 309 309 311 310 308 306 308 311 312 312 312 314 313 308 305 303 301 300 301 299 299 298 299 296 294 296 298 298 301 303 304 304 305 305 303 302
307 308 309 309 309 309 304 305 307 310 307 304 305 308 310 308 313 312 313 311 310 305 302 301 301 299 299 299 297 299 297 295 295 303 300 299 303 300 301 303 302 302 302
305 308 309 309 308 310 302 302 304 311 306 306 307 308 308 308 312 311 309 309 308 307 306 304 302 299 298 298 297 298 299 300 298 301 301 297 300 298 299 300 301 301 302
307 306 309 308 307 308 299 298 301 313 309 310 310 310 311 309 313 311 309 307 307 307 307 307 305 304 304 303 305 304 304 302 303 303 305 297 299 297 301 301 299 300 300
306 307 308 306 309 310 298 298 304 311 311 311 310 307 313 316 304 306 311 308 307 307 307 305 304 302 301 302 305 303 302 302 301 302 304 300 300 300 301 301 300 298 298
305 307 305 306 303 306 300 298 305 309 309 312 313 312 300 309 301 304 314 310 308 307 305 305 305 304 307 305 304 308 305 303 301 300 306 301 302 302 298 301 301 302 300

GFSMA_sfc_thetae_285.txt.gz
Theta_e
342 337 334 328 328 327 325 323 324 327 326 327 328 328 328 329 330 329 329 340 340 337 333 332 333 333 335 340 344 349 350 351 349 349 350 350 349 349 349 349 347 346 345
338 334 328 328 327 326 325 324 324 325 324 324 324 327 328 328 329 330 328 330 343 340 336 333 333 333 333 336 340 345 348 350 350 351 351 351 349 349 349 349 348 347 346
337 334 328 327 327 328 326 325 324 325 322 323 325 324 325 327 327 328 329 329 331 340 340 338 336 334 334 333 336 341 345 347 348 349 349 350 349 348 348 349 349 348 346
333 333 328 327 328 328 325 323 322 320 321 320 321 322 324 326 327 328 329 329 328 328 336 340 340 339 336 333 333 338 342 344 346 348 347 347 348 348 348 347 348 348 346
330 331 329 328 330 327 324 322 321 321 319 320 320 322 324 323 325 324 329 329 329 327 326 330 334 336 338 334 332 335 341 343 343 344 347 346 346 348 348 348 347 346 345
331 331 329 331 328 324 322 322 324 321 319 319 320 321 322 324 325 324 325 325 326 325 325 329 326 326 337 337 335 335 337 339 342 341 343 344 346 346 348 348 347 346 345
331 333 329 330 329 325 326 327 321 320 316 318 315 318 319 323 325 324 326 325 324 324 326 327 327 330 330 338 337 337 338 337 338 341 341 341 341 342 344 347 347 346 344
333 331 330 328 329 322 326 325 323 316 316 317 313 313 310 315 319 323 326 325 324 323 322 326 331 333 333 336 334 334 334 336 337 339 341 339 339 341 342 343 345 345 345
331 330 328 326 325 322 317 321 319 318 312 314 317 314 309 308 313 319 321 320 321 320 324 328 331 331 332 332 333 333 335 336 336 338 340 341 339 338 340 341 340 345 345
329 328 326 323 322 319 318 318 317 316 315 311 312 313 316 313 307 306 314 317 320 321 325 324 330 331 332 333 331 331 332 332 334 335 337 340 341 340 338 340 335 334 343
327 323 323 321 320 318 320 320 319 317 316 315 312 311 312 313 314 311 305 309 316 318 322 325 327 329 330 333 335 329 329 329 330 331 334 336 337 340 341 340 335 334 333
322 323 320 321 321 320 319 317 318 317 315 316 315 315 310 308 308 307 306 307 307 312 319 319 327 329 330 333 330 328 328 327 327 328 330 333 336 339 341 338 332 333 334
320 324 322 320 318 319 318 317 316 315 316 315 314 313 314 310 310 307 305 305 307 308 311 316 325 328 330 333 330 327 326 325 324 325 325 327 332 337 340 339 338 336 335
319 322 320 319 319 318 316 317 315 314 316 315 313 313 312 310 312 311 311 305 303 306 308 313 323 323 326 325 324 323 322 323 322 322 322 323 324 328 330 332 335 336 335
319 319 320 319 317 318 315 314 313 314 315 314 313 313 313 312 314 311 310 309 305 300 304 310 315 318 318 318 318 317 317 320 320 319 318 319 321 321 322 323 324 325 326
319 319 319 317 317 314 313 314 314 314 313 314 313 312 312 311 313 312 311 310 310 306 302 310 313 313 316 315 316 313 314 316 316 316 316 316 316 317 318 319 319 320 320
318 317 316 315 310 312 315 314 314 313 312 313 314 312 313 313 310 310 310 310 308 308 304 307 310 310 310 308 308 309 311 311 312 314 314 313 312 312 313 314 314 316 316
318 316 315 310 312 313 314 312 311 311 312 311 312 312 312 314 313 314 311 309 308 310 308 304 305 305 305 307 307 306 307 309 309 312 311 311 310 310 310 310 310 311 311
315 314 311 309 309 312 312 313 312 312 312 312 312 312 312 312 311 312 312 310 310 310 309 304 302 305 305 306 305 306 306 307 308 311 310 309 309 309 308 308 308 307 306
311 309 309 309 311 313 313 313 312 313 311 312 312 312 313 311 310 311 312 311 310 308 304 303 302 302 303 304 304 302 302 305 304 306 308 307 307 308 308 307 307 306 304
311 311 309 310 313 313 310 311 311 311 308 308 309 310 311 313 312 314 314 310 309 304 303 302 300 299 299 300 301 304 303 303 304 305 304 306 307 307 306 306 307 305 303
311 310 311 311 312 311 304 304 306 311 310 310 309 311 316 316 315 313 312 312 310 307 303 301 300 295 297 298 300 300 300 299 297 307 306 305 307 304 304 303 303 302 302
312 311 312 313 312 312 301 301 304 311 310 310 309 311 310 312 313 313 310 310 308 307 306 303 297 297 297 299 300 299 299 302 303 305 306 303 305 302 303 302 302 302 301
309 313 314 310 313 310 301 301 303 314 316 316 313 314 310 308 308 307 307 306 306 306 305 304 301 300 300 301 303 307 311 310 308 306 309 300 304 302 303 302 301 301 301
312 313 313 314 313 313 299 299 303 315 318 317 316 313 312 307 303 304 306 304 302 302 304 303 301 300 299 300 305 310 306 304 301 302 306 301 302 302 303 302 301 299 299
314 315 313 314 309 313 299 299 301 315 317 316 316 312 303 306 302 303 307 304 301 301 300 300 301 301 303 307 307 315 312 305 302 300 307 301 299 299 296 300 300 301 299

GFSMA_sfc_thetae_288.txt.gz
Theta_e
344 342 340 333 332 332 329 325 324 327 325 324 324 323 323 325 326 328 327 343 342 343 340 335 334 335 337 339 341 344 348 350 350 348 348 347 349 350 350 349 348 346 346
344 340 333 333 333 332 329 326 323 326 325 323 322 323 323 323 325 328 329 329 346 344 342 341 338 336 335 338 339 341 342 347 349 349 348 347 348 350 350 349 348 348 346
334 338 334 334 333 332 329 326 325 325 323 321 319 320 321 322 324 325 326 325 333 344 343 342 341 340 338 336 338 339 340 344 347 348 348 348 348 348 349 349 348 348 347
342 338 334 332 334 332 328 326 324 322 319 318 319 319 320 322 322 324 324 326 328 328 339 343 341 340 339 336 334 338 339 340 345 345 347 348 348 346 348 348 348 348 347
336 337 334 334 335 330 327 326 323 321 317 318 316 317 319 321 322 324 325 328 326 326 326 335 339 338 340 338 338 337 338 338 343 344 345 346 347 347 347 347 347 346 346
336 337 333 334 333 326 325 324 322 322 320 318 316 315 316 320 321 323 322 326 326 326 325 327 327 324 334 338 339 339 339 338 342 343 343 343 346 346 346 346 348 347 346
336 338 334 332 329 326 325 324 321 319 318 317 313 312 314 316 318 319 322 325 324 323 324 327 325 328 329 337 339 340 336 335 339 339 341 340 341 344 345 344 346 347 346
337 334 335 330 330 324 321 320 320 316 315 317 312 310 306 310 317 317 319 318 319 321 321 321 325 328 328 330 331 337 333 332 336 337 339 340 340 340 342 344 343 345 345
336 335 333 331 326 324 318 318 317 316 311 313 315 311 305 305 308 315 314 316 318 318 321 323 325 327 329 328 330 329 331 333 335 336 337 340 342 339 339 342 341 342 343
335 332 332 327 325 322 320 319 318 316 315 309 312 314 313 311 304 303 312 314 316 316 319 321 322 324 325 327 329 330 330 332 332 333 335 336 338 341 340 339 340 337 341
332 329 326 325 323 321 320 319 317 316 316 312 311 310 310 310 311 307 303 308 313 312 316 315 319 322 324 325 326 327 329 329 328 329 332 334 335 336 339 342 340 337 335
328 329 324 324 323 321 320 317 317 316 314 313 312 312 310 307 305 306 304 303 304 308 312 313 318 320 322 323 328 328 327 328 326 326 327 331 334 336 338 340 340 338 334
324 327 325 324 320 320 318 317 316 314 312 312 311 311 312 310 311 309 305 303 303 307 308 311 316 319 322 323 324 326 326 324 324 323 324 326 331 335 337 339 340 334 336
321 326 322 321 319 319 317 317 314 312 312 312 312 312 311 311 311 309 307 304 303 303 307 308 316 318 319 321 323 323 323 323 321 320 321 321 324 328 330 333 335 334 335
320 320 319 318 317 317 316 313 312 313 313 313 312 312 311 310 312 311 310 308 305 300 301 308 310 314 316 316 318 316 317 322 320 319 319 319 320 321 322 323 324 328 330
320 318 317 316 316 314 311 313 313 314 313 312 312 312 312 312 312 311 310 309 308 305 302 307 309 312 312 312 315 313 315 317 317 317 316 316 316 318 319 319 319 320 321
317 316 315 314 312 310 314 313 313 313 311 311 312 311 311 312 310 310 310 309 308 307 304 305 307 308 307 307 308 310 311 311 313 315 314 313 313 314 314 315 317 318 318
315 314 313 310 309 309 313 312 312 312 311 310 310 311 310 312 311 312 309 308 307 308 306 301 304 304 305 306 306 306 308 310 310 313 312 312 312 311 311 311 312 312 313
310 309 309 310 308 310 312 312 313 311 311 311 311 311 311 312 309 310 310 308 308 308 306 303 302 304 304 305 304 305 306 306 309 312 311 310 310 310 309 309 308 307 307
312 312 310 308 309 312 312 311 312 311 309 309 309 309 310 311 310 311 310 308 308 305 304 302 301 301 302 304 304 301 301 304 304 307 309 309 309 309 308 308 307 306 305
311 310 310 310 312 313 306 307 308 308 308 308 309 310 312 312 312 312 310 309 306 304 303 301 300 300 300 300 300 302 300 302 302 304 303 304 304 304 304 305 306 305 303
312 313 312 313 313 309 302 303 307 308 309 309 309 312 313 314 313 313 312 309 307 303 301 300 298 297 297 298 301 300 300 299 297 304 303 301 302 300 300 300 303 302 302
313 313 313 312 311 310 302 302 305 309 310 311 312 308 309 311 312 311 310 309 308 307 305 301 298 297 297 298 300 298 298 299 300 305 302 297 299 297 299 300 302 302 301
312 313 313 313 313 306 301 300 303 310 313 312 311 309 307 307 307 307 306 305 304 304 303 302 301 299 300 301 302 304 305 303 303 304 304 296 299 296 298 298 301 301 301
313 314 314 313 312 310 300 300 304 315 312 312 310 308 307 305 302 303 303 301 300 301 304 303 302 300 299 300 303 304 303 300 298 299 302 299 298 297 298 297 298 300 300
314 314 313 313 309 312 301 299 303 313 313 311 308 308 304 304 301 301 303 300 298 299 300 300 300 300 300 302 303 310 308 299 298 297 300 298 298 295 291 295 294 295 294

GFSMA_sfc_thetae_291.txt.gz
Theta_e
330 330 325 324 321 322 319 318 317 317 317 318 316 316 317 318 319 321 321 343 343 344 345 340 338 338 338 340 340 339 344 347 349 349 347 347 347 348 348 349 347 346 345
330 326 324 323 322 321 320 318 317 316 315 315 315 315 315 316 317 318 320 322 344 343 345 343 342 340 338 338 340 340 340 340 346 347 348 347 346 346 347 348 348 347 346
327 326 322 321 323 321 321 319 318 316 314 315 312 315 316 316 318 318 319 321 323 343 345 344 345 343 340 336 338 340 340 340 343 346 346 347 347 346 346 348 347 347 346
329 326 324 323 324 321 319 318 316 314 313 312 312 312 312 314 316 318 319 320 323 330 341 343 342 340 340 335 334 338 340 340 340 343 344 345 347 348 347 348 348 347 346
326 325 323 323 325 319 317 317 315 313 312 311 312 310 310 311 314 317 317 319 322 323 325 339 341 340 340 338 334 335 340 339 340 341 344 344 345 347 347 347 347 347 346
329 324 322 322 320 317 317 316 313 313 312 311 314 311 308 311 313 312 315 318 319 319 322 321 324 326 333 334 335 335 338 340 339 340 343 342 343 346 347 347 346 345 346
327 324 323 321 319 316 315 312 313 310 309 311 307 307 307 310 309 312 315 318 316 318 319 319 323 324 326 332 333 335 336 339 340 340 338 338 340 342 346 346 346 345 345
326 325 322 320 318 313 311 311 309 308 308 308 304 303 299 303 308 312 314 315 314 316 319 320 321 322 323 323 327 334 333 333 334 336 336 337 340 340 340 343 344 344 344
326 323 322 319 315 312 310 309 309 308 305 307 308 308 302 298 304 309 310 313 314 315 317 317 319 321 322 322 326 327 329 329 330 334 336 338 339 340 339 341 342 342 343
324 321 318 315 314 311 310 311 312 308 307 304 309 312 310 309 302 298 308 310 313 312 312 311 314 318 320 321 326 328 329 330 331 331 334 334 336 339 340 340 341 340 340
321 318 318 315 312 311 311 310 309 308 307 306 307 309 308 308 309 305 301 302 308 308 308 308 312 317 317 320 321 325 329 328 326 326 328 332 334 335 337 341 340 340 337
317 318 318 313 312 311 310 309 309 308 308 309 309 310 308 305 303 304 303 302 299 303 307 309 307 314 319 318 326 327 327 326 325 325 327 329 332 335 335 337 340 340 338
315 315 316 315 312 311 311 313 308 310 307 309 310 309 309 308 307 306 304 301 297 300 302 305 310 313 320 321 323 326 326 323 323 323 324 327 329 333 336 338 339 341 339
313 317 313 314 312 314 314 311 310 310 310 310 307 305 306 309 309 308 304 301 300 303 301 306 309 313 316 319 323 325 322 322 321 321 321 322 325 328 332 335 337 335 335
316 314 313 310 312 313 311 307 308 310 309 309 306 309 309 306 306 307 308 307 303 297 300 306 307 313 314 316 319 317 319 322 320 319 319 319 320 322 324 326 328 328 331
312 310 310 312 311 308 309 309 310 309 308 306 307 307 307 305 305 305 307 307 306 303 301 305 308 309 311 312 316 313 316 318 318 318 317 317 317 319 319 319 321 322 324
312 311 310 307 307 308 309 310 309 309 307 305 307 308 308 309 305 304 308 308 306 306 302 304 306 307 306 307 308 310 312 312 314 315 315 314 314 314 315 317 318 319 320
306 305 305 308 308 308 309 309 308 308 307 308 308 306 307 311 307 308 307 306 306 307 305 301 303 304 304 306 307 307 309 310 311 313 313 312 311 311 311 311 312 314 315
305 305 308 308 307 307 309 307 308 308 308 308 307 306 306 307 307 308 308 307 307 308 305 302 301 304 304 305 304 305 305 306 309 312 311 311 311 310 310 309 308 308 308
305 305 308 308 307 309 304 304 306 308 309 309 309 309 309 307 308 308 308 307 307 304 303 302 301 301 302 304 303 301 301 304 304 307 308 308 309 309 309 309 308 306 305
305 306 306 306 308 304 304 304 307 308 308 308 309 310 312 310 312 311 308 306 305 303 302 301 300 300 300 300 299 301 300 301 302 303 302 301 300 300 301 305 307 306 304
305 306 305 306 304 305 303 305 307 306 308 308 307 309 310 312 312 312 310 308 306 303 301 300 299 298 298 299 301 300 300 299 297 302 298 296 298 297 297 299 302 302 302
304 305 305 305 302 302 302 301 304 307 308 306 307 307 308 311 310 308 308 308 306 306 304 301 299 299 298 299 299 298 298 300 297 297 297 293 295 294 295 298 301 301 301
305 304 306 305 303 306 302 301 305 308 305 307 307 306 306 306 306 306 304 303 302 302 302 302 301 300 300 301 301 302 301 300 299 298 296 291 292 291 293 295 301 300 299
304 304 305 305 305 306 301 302 308 307 305 306 306 306 305 303 301 302 302 300 300 301 303 303 301 300 299 300 301 301 299 298 295 294 296 294 291 291 292 292 295 300 298
306 307 306 307 307 306 300 301 308 307 303 305 305 305 303 302 299 300 301 299 298 299 300 300 298 299 299 300 302 299 296 294 295 291 295 293 292 290 287 291 292 291 292